Terminal Aerodrome Forecast
Issued by NWS

Home | Current Version | Previous Version | Text Only | Print | Product List | Glossary On
Versions: 1 2 3 4 5 6 7 8 9 10 11 12 13 14 15 16 17 18 19 20 21 22 23 24 25 26 27 28 29 30 31 32 33 34 35 36 37 38 39 40 41 42 43 44 45 46 47 48 49 50
000
FTUS41 KCTP 310940 AAC
TAFAOO
TAF AMD
KAOO 310940Z 3110/0106 19005KT P6SM VCSH SCT015 BKN100
      TEMPO 3110/3113 3SM SHRA BR SCT009 OVC015
     FM311400 23007KT P6SM VCSH BKN035=

USA.gov is the U.S. government's official web portal to all federal, state and local government web resources and services.